Time,TemperatureF,DewpointF,PressureIn,WindDirection,WindDirectionDegrees,WindSpeedMPH,WindSpeedGustMPH,Humidity,HourlyPrecipIn,Conditions,Clouds,dailyrainin,SolarRadiationWatts/m^2,SoftwareType,DateUTC
2013-03-06 01:00:00,34.0,18.0,30.04,WNW,297,7.0,-999.0,52,-99.99,,,-99.99,0.000000,,2013-03-06 07:00:00,
2013-03-06 01:52:00,34.0,18.0,30.04,WNW,297,7.0,-999.0,52,-99.99,,,-99.99,0.000000,,2013-03-06 07:52:00,
2013-03-06 02:00:00,33.0,17.0,30.07,WNW,288,6.0,-999.0,50,-99.99,,,-99.99,0.000000,,2013-03-06 08:00:00,
2013-03-06 02:52:00,33.0,17.0,30.07,WNW,288,6.0,-999.0,50,-99.99,,,-99.99,0.000000,,2013-03-06 08:52:00,
2013-03-06 03:00:00,33.0,18.0,30.07,West,280,6.0,-999.0,53,-99.99,,,-99.99,0.000000,,2013-03-06 09:00:00,
2013-03-06 03:52:00,33.0,18.0,30.07,West,280,6.0,-999.0,53,-99.99,,,-99.99,0.000000,,2013-03-06 09:52:00,
2013-03-06 04:00:00,33.0,19.0,30.07,West,271,6.0,-999.0,55,-99.99,,,-99.99,0.000000,,2013-03-06 10:00:00,
2013-03-06 04:52:00,33.0,19.0,30.07,West,271,6.0,-999.0,55,-99.99,,,-99.99,0.000000,,2013-03-06 10:52:00,
2013-03-06 05:00:00,34.0,20.0,30.08,WNW,292,6.0,-999.0,57,-99.99,,,-99.99,0.000000,,2013-03-06 11:00:00,
2013-03-06 05:52:00,34.0,20.0,30.08,WNW,292,6.0,-999.0,57,-99.99,,,-99.99,0.000000,,2013-03-06 11:52:00,
2013-03-06 06:00:00,34.0,22.0,30.10,WNW,293,6.0,-999.0,61,-99.99,,,-99.99,0.000000,,2013-03-06 12:00:00,
2013-03-06 06:53:00,34.0,22.0,30.10,WNW,293,6.0,-999.0,61,-99.99,,,-99.99,0.000000,,2013-03-06 12:53:00,
2013-03-06 07:00:00,34.0,21.0,30.13,NW,307,7.0,-999.0,59,-99.99,,,-99.99,6.270000,,2013-03-06 13:00:00,
2013-03-06 07:52:00,34.0,21.0,30.13,NW,307,7.0,-999.0,59,-99.99,,,-99.99,6.270000,,2013-03-06 13:52:00,
2013-03-06 08:00:00,33.0,21.0,30.17,NW,307,7.0,-999.0,61,-99.99,,,-99.99,32.310001,,2013-03-06 14:00:00,
2013-03-06 08:52:00,33.0,21.0,30.17,NW,307,7.0,-999.0,61,-99.99,,,-99.99,32.310001,,2013-03-06 14:52:00,
2013-03-06 09:00:00,35.0,23.0,30.19,NW,308,7.0,-999.0,60,-99.99,,,-99.99,223.399994,,2013-03-06 15:00:00,
2013-03-06 09:52:00,35.0,23.0,30.19,NW,308,7.0,-999.0,60,-99.99,,,-99.99,223.399994,,2013-03-06 15:52:00,
2013-03-06 10:00:00,36.0,24.0,30.21,NW,320,7.0,-999.0,61,-99.99,,,-99.99,178.899994,,2013-03-06 16:00:00,
2013-03-06 10:52:00,36.0,24.0,30.21,NW,320,7.0,-999.0,61,-99.99,,,-99.99,178.899994,,2013-03-06 16:52:00,
2013-03-06 11:00:00,37.0,24.0,30.22,NW,311,7.0,-999.0,58,-99.99,,,-99.99,243.500000,,2013-03-06 17:00:00,
2013-03-06 11:53:00,37.0,24.0,30.22,NW,311,7.0,-999.0,58,-99.99,,,-99.99,243.500000,,2013-03-06 17:53:00,
2013-03-06 12:00:00,38.0,25.0,30.23,NW,309,7.0,-999.0,59,-99.99,,,-99.99,317.399994,,2013-03-06 18:00:00,
2013-03-06 12:53:00,38.0,25.0,30.23,NW,309,7.0,-999.0,59,-99.99,,,-99.99,317.399994,,2013-03-06 18:53:00,
2013-03-06 13:00:00,39.0,25.0,30.22,NNW,337,8.0,-999.0,56,-99.99,,,-99.99,291.799988,,2013-03-06 19:00:00,
2013-03-06 13:53:00,39.0,25.0,30.22,NNW,337,8.0,-999.0,56,-99.99,,,-99.99,291.799988,,2013-03-06 19:53:00,
2013-03-06 14:00:00,41.0,26.0,30.21,NW,321,7.0,-999.0,55,-99.99,,,-99.99,408.100006,,2013-03-06 20:00:00,
2013-03-06 14:53:00,41.0,26.0,30.21,NW,321,7.0,-999.0,55,-99.99,,,-99.99,408.100006,,2013-03-06 20:53:00,
2013-03-06 15:00:00,41.0,27.0,30.23,NW,315,6.0,-999.0,57,-99.99,,,-99.99,218.199997,,2013-03-06 21:00:00,
2013-03-06 15:52:00,41.0,27.0,30.23,NW,315,6.0,-999.0,57,-99.99,,,-99.99,218.199997,,2013-03-06 21:52:00,
2013-03-06 16:00:00,42.0,28.0,30.23,NW,322,6.0,-999.0,57,-99.99,,,-99.99,140.899994,,2013-03-06 22:00:00,
2013-03-06 16:52:00,42.0,28.0,30.23,NW,322,6.0,-999.0,57,-99.99,,,-99.99,140.899994,,2013-03-06 22:52:00,
2013-03-06 17:00:00,41.0,27.0,30.23,NNW,332,6.0,-999.0,55,-99.99,,,-99.99,92.199997,,2013-03-06 23:00:00,
2013-03-06 17:52:00,41.0,27.0,30.23,NNW,332,6.0,-999.0,55,-99.99,,,-99.99,92.199997,,2013-03-06 23:52:00,
2013-03-06 18:00:00,40.0,27.0,30.24,NNW,332,5.0,-999.0,58,-99.99,,,-99.99,17.590000,,2013-03-07 00:00:00,
2013-03-06 18:52:00,40.0,27.0,30.24,NNW,332,5.0,-999.0,58,-99.99,,,-99.99,17.590000,,2013-03-07 00:52:00,
2013-03-06 19:00:00,39.0,26.0,30.24,NNW,331,3.0,-999.0,60,-99.99,,,-99.99,0.000000,,2013-03-07 01:00:00,
2013-03-06 19:52:00,39.0,26.0,30.24,NNW,331,3.0,-999.0,60,-99.99,,,-99.99,0.000000,,2013-03-07 01:52:00,
2013-03-06 20:00:00,37.0,26.0,30.24,NNE,13,5.0,-999.0,65,-99.99,,,-99.99,0.000000,,2013-03-07 02:00:00,
2013-03-06 21:00:00,35.0,25.0,30.24,NNE,31,4.0,-999.0,67,-99.99,,,-99.99,0.000000,,2013-03-07 03:00:00,
2013-03-06 21:52:00,35.0,25.0,30.24,NNE,31,4.0,-999.0,67,-99.99,,,-99.99,0.000000,,2013-03-07 03:52:00,
2013-03-06 22:00:00,33.0,25.0,30.25,NE,41,2.0,-999.0,71,-99.99,,,-99.99,0.000000,,2013-03-07 04:00:00,
2013-03-06 22:52:00,33.0,25.0,30.25,NE,41,2.0,-999.0,71,-99.99,,,-99.99,0.000000,,2013-03-07 04:52:00,
2013-03-06 23:00:00,31.0,25.0,30.24,ENE,76,0.0,-999.0,77,-99.99,,,-99.99,0.000000,,2013-03-07 05:00:00,
2013-03-06 23:52:00,31.0,25.0,30.24,ENE,76,0.0,-999.0,77,-99.99,,,-99.99,0.000000,,2013-03-07 05:52:00,